Regional Weather Roundup
Issued by NWS

Home | Current Version | Previous Version | Graphics & Text | Print | Product List | Glossary On
Versions: 1 2 3 4 5 6 7 8 9 10 11 12 13 14 15 16 17 18 19 20 21 22 23 24 25 26 27 28 29 30 31 32 33 34 35 36 37 38 39 40 41 42 43 44 45 46 47 48 49 50
000
ASUS45 KCYS 041910
RWRWY

WYOMING REGIONAL WEATHER ROUNDUP
NATIONAL WEATHER SERVICE CHEYENNE WY
1200 PM MST WED MAR 04 2015

NOTE:  "FAIR" INDICATES FEW OR NO CLOUDS BELOW 12,000 FEET
WITH NO SIGNIFICANT WEATHER AND/OR OBSTRUCTIONS TO VISIBILITY.

WYZ001-042000-
YELLOWSTONE NATIONAL PARK

CITY           SKY/WX    TMP DP  RH WIND       PRES   REMARKS
LK YELLOWSTONE   N/A      6  -6  57 E3        30.05S
W YELLOWSTONE  NOT AVBL

$$
WYZ002>013-054>058-071-098>099-042000-
NORTHERN WYOMING

CITY           SKY/WX    TMP DP  RH WIND       PRES   REMARKS
JACKSON        NOT AVBL
CODY           FAIR      18   3  53 SE3       30.10F
GREYBULL       FAIR      17   2  51 S9        30.21F WCI   6
WORLAND        FAIR      18   1  47 CALM      30.19F
SHERIDAN       FAIR      11   2  67 S5        30.18F WCI   3
BUFFALO        FAIR      10   2  69 CALM      30.11F
GILLETTE       FAIR      12  -1  56 NW9       30.15F WCI   0
HULETT         MOCLDY    12  -4  48 NW12      30.16S WCI  -2
NEWCASTLE      FAIR      16  -8  35 NW24      30.17S WCI  -3

$$
WYZ014>020-022>026-101>103-042000-
CENTRAL WYOMING

CITY           SKY/WX    TMP DP  RH WIND       PRES   REMARKS
BIG PINEY      NOT AVBL
PINEDALE       FAIR      16   0  48 W16       30.06S WCI   0
DUBOIS         FAIR      18  -4  38 NW18G25   29.98S WCI   2
LANDER         FAIR       8  -1  66 E3        30.12S
RIVERTON       FAIR       6   1  80 CALM      30.14S
CASPER         FAIR      13   3  64 SW20      30.11R WCI  -5
DOUGLAS        FAIR       7   0  73 CALM      30.14F

$$
WYZ021-027>030-104>119-042000-
SOUTHERN WYOMING

CITY           SKY/WX    TMP DP  RH WIND       PRES   REMARKS
EVANSTON       FAIR      23  13  65 SW13      30.09R WCI  11
FORT BRIDGER   FAIR      25  13  62 NW15G22   30.11R WCI  12
ROCK SPRINGS   FAIR      10   7  87 SW3       30.09
DIXON          CLOUDY    19  10  69 W7        30.12R WCI   9
RAWLINS        FAIR       8   0  69 CALM      30.08R
SARATOGA       FAIR       5   1  85 W3        30.06S
LARAMIE        CLOUDY    10  -4  53 N9        30.00R WCI  -3
CHEYENNE       FAIR      16   4  59 VRB5      30.06S WCI   9
TORRINGTON     FAIR      19   3  49 NW10      30.17F WCI   7
PINE BLUFFS    FAIR      21   1  42 W8        30.13S WCI  12

$$


USA.gov is the U.S. government's official web portal to all federal, state and local government web resources and services.